Location: Plainartige
(45.6866°N, 1.7993°E)
Time: 16:39:53
(UTC+00:00)

Envisat - Pass Details

Date: 23 January 2022
Orbit: 764 x 765 km, 98.2° (Epoch: 19 May)

Event Time Altitude Azimuth Distance (km) Brightness Sun altitude
Rises 06:07:52 0° 1° (N) 3,241 6.1 -13.2°
Reaches altitude 10° 06:10:37 10° 347° (NNW) 2,311 5.2 -12.8°
Maximum altitude 06:14:27 22° 298° (WNW) 1,624 4.1 -12.1°
Drops below altitude 10° 06:18:17 10° 249° (WSW) 2,300 5.0 -11.5°
Sets 06:21:01 0° 234° (SW) 3,222 5.9 -11.0°
